Location: Newark
(39.0900°N, 17.1600°E)
Time: 14:26:46
(UTC+00:00)

ISS - Visible Passes

Search period start: 18 September 2020 00:00
Search period end: 28 September 2020 00:00
Orbit: 419 x 420 km, 51.6° (Epoch: 18 September)

Date Brightness Start Highest point End Pass type
(mag) Time Alt. Az. Time Alt. Az. Time Alt. Az.
18 Sep -3.7 18:02:22 10° SW 18:05:43 79° NW 18:08:14 17° NE visible
18 Sep -0.3 19:40:46 10° WNW 19:41:14 12° NW 19:41:14 12° NW visible
19 Sep -3.6 17:15:04 10° SW 17:18:21 58° SE 17:21:41 10° ENE visible
19 Sep -1.5 18:52:44 10° WNW 18:55:24 21° NNW 18:56:09 20° N visible
20 Sep -1.9 18:04:51 10° W 18:07:51 29° NNW 18:10:52 10° NE visible
21 Sep -2.7 17:17:06 10° WSW 17:20:21 45° NNW 17:23:37 10° NE visible
21 Sep -0.9 18:56:10 10° NW 18:57:50 13° NNW 18:58:28 13° N visible
22 Sep -1.1 18:07:58 10° WNW 18:10:10 16° NNW 18:12:22 10° NNE visible
23 Sep -1.4 17:19:53 10° WNW 17:22:32 21° NNW 17:25:12 10° NNE visible
23 Sep -0.7 19:00:04 10° N 19:00:22 10° N 19:00:22 10° N visible
24 Sep -0.9 18:11:34 10° NNW 18:12:37 11° N 18:13:40 10° N visible
25 Sep -1.0 17:23:13 10° NW 17:24:53 13° NNW 17:26:33 10° NNE visible
27 Sep -0.9 17:27:03 10° N 17:27:21 10° N 17:27:38 10° N visible
27 Sep -0.5 19:03:29 10° NNW 19:03:33 10° NNW 19:03:33 10° NNW visible
